This is the latest recevied weather packets stored in our database for station/object IZ2PAG-10. If no packets are shown the sender has not sent any weather packets the latest 10 day(s).
| Time | Temp. | Humidity | Pressure | Rain* | Wind** | Luminosity | Snow |
|---|---|---|---|---|---|---|---|
| 1788563464 | 27.22° C | 48% | 1019.4 hPa | - | - | - | - |
| 1788563412 | 27.22° C | 48% | 1019.4 hPa | - | - | - | - |
| 1788561645 | 27.22° C | 48% | 1019.5 hPa | - | - | - | - |
| 1788561612 | 27.22° C | 48% | 1019.5 hPa | - | - | - | - |
| 1788559812 | 27.22° C | 48% | 1019.6 hPa | - | - | - | - |
| 1788558012 | 27.22° C | 48% | 1019.8 hPa | - | - | - | - |
| 1788556212 | 27.22° C | 47% | 1020 hPa | - | - | - | - |
| 1788554411 | 27.22° C | 49% | 1020 hPa | - | - | - | - |
| 1788552664 | 27.22° C | 50% | 1020 hPa | - | - | - | - |
| 1788552611 | 27.22° C | 50% | 1020 hPa | - | - | - | - |
| 1788551751 | 27.78° C | 48% | 1020 hPa | - | - | - | - |
| 1788550850 | 27.78° C | 48% | 1020 hPa | - | - | - | - |
| 1788550810 | 27.78° C | 48% | 1020 hPa | - | - | - | - |
| 1788549010 | 27.78° C | 48% | 1019.9 hPa | - | - | - | - |
| 1788547210 | 27.78° C | 49% | 1019.7 hPa | - | - | - | - |
| 1788545409 | 27.78° C | 48% | 1019.4 hPa | - | - | - | - |
| 1788543609 | 27.78° C | 48% | 1019.3 hPa | - | - | - | - |
| 1788541809 | 27.78° C | 48% | 1019.4 hPa | - | - | - | - |
| 1788540009 | 27.22° C | 49% | 1019.4 hPa | - | - | - | - |
| 1788538234 | 27.78° C | 48% | 1019.6 hPa | - | - | - | - |
| 1788536518 | 27.78° C | 48% | 1019.7 hPa | - | - | - | - |
| 1788536408 | 27.78° C | 48% | 1019.7 hPa | - | - | - | - |
| 1788534608 | 27.78° C | 49% | 1019.7 hPa | - | - | - | - |
| 1788532808 | 27.22° C | 51% | 1019.9 hPa | - | - | - | - |
| 1788531008 | 27.78° C | 48% | 1020.1 hPa | - | - | - | - |
* Rain since midnight (hover to see other rain measurements)
** Current wind speed in m/s (hover to see current wind gust speed)